Find Starlink 3629

NORAD ID: 51774 Int'l Des: 2022-017 Owner: SPXS Country: US Constellation: starlink operational
LEOCIRCULAR

Current View

Loading 3D Globe...

About Starlink 3629

Starlink 3629 (NORAD 51774) is a starlink constellation satellite (v1.5) launched Feb 25, 2022 by SPXS of US. It operates in LEO, CIRCULAR orbit with a mass of 297.00 kg.

About Starlink 3629

Description loading...

Upcoming Passes

Passes for default location (London). Set your location on the main map for personalized predictions.

Altitude History

Loading altitude history...

Two-Line Element Set

1 51774U 22017G 26171.46591176 .00000192 00000-0 30156-4 0 9993
2 51774 53.1591 237.6232 0001112 83.8804 276.2314 15.08836585238086
Epoch: Jun 20, 2026 • Age: 34 hours

Current Status

Altitude 544.0 km
Velocity 7.59 km/s
Sub-Earth Point -14.96°S, 169.05°W
Launch Date Feb 25, 2022
Age 4.3 years
Type internet

Technical Details

Classification Payload
Mass 297.00 kg
Dry Mass 275.00 kg
Total Mass 297.00 kg
Length 0.20 m
Diameter 2.80 m
Span 9.00 m
Shape Box + pan
Manufacturer SPXS
Bus Type Starlink
Phase Status In Orbit
Owner/State SPXS/US

Most Searched